Location: Palo Alto
(37.4420°N, 122.1420°W)
Time: 17:14:45
(UTC-07:00)

Daily predictions for brighter satellites

Satellite Brightness Start Highest point End
(mag) Time Altitude Azimuth Time Altitude Azimuth Time Altitude Azimuth
Cosmos 2333 Rocket 3.0 20:52:14 10° NNW 20:57:43 51° WSW 21:03:08 10° S
Resurs 1-3 4.0 20:54:54 10° S 20:59:14 66° WSW 21:03:37 10° NNW
Cosmos 1850 Rocket 4.2 20:55:27 10° S 21:00:25 50° ESE 21:05:26 10° NNE
Cosmos 1184 Rocket 2.8 20:59:47 10° S 21:03:06 66° E 21:06:28 10° NNE
ERS-1 Rocket 4.1 21:02:38 10° SE 21:06:50 28° ENE 21:11:03 10° N
Meteor 2-1 Rocket 4.4 21:01:19 10° N 21:07:06 64° E 21:12:43 10° SSE
USA 234 4.0 21:01:53 10° ENE 21:07:21 28° SE 21:12:48 10° S
Cosmos 1356 Rocket 4.3 21:08:33 10° SSE 21:12:16 30° E 21:16:03 10° NNE
Cosmos 1842 Rocket 3.8 21:10:24 10° N 21:14:46 75° W 21:19:05 10° S
YAOGAN 6 3.1 21:13:40 10° SSE 21:17:08 45° ENE 21:20:40 10° N
Meteor 2-15 Rocket 4.5 21:14:12 10° S 21:20:15 87° E 21:26:22 10° N
Cosmos 2297 Rocket 3.5 21:15:52 10° SW 21:21:14 45° WNW 21:26:40 10° N
H-2A R/B 3.9 21:20:17 10° ESE 21:23:37 17° ENE 21:26:59 10° NNE
Cosmos 1726 4.2 21:23:04 10° NE 21:24:57 13° ENE 21:26:41 10° ESE
Cosmos 1741 Rocket 4.0 21:20:38 10° SSW 21:25:57 86° ESE 21:31:17 10° NNE
Cosmos 2173 Rocket 4.4 21:20:57 10° N 21:26:50 45° E 21:32:33 11° SSE
RESURS DK-1 4.2 21:27:00 10° N 21:30:02 19° ENE 21:32:49 11° E
Cosmos 2263 Rocket 3.8 21:28:33 12° ESE 21:30:20 13° E 21:32:56 10° ENE
Cosmos 1818 3.6 21:25:40 10° NNW 21:31:06 71° ENE 21:35:50 14° SE
Cosmos 1076 Rocket 3.7 21:27:30 10° S 21:31:45 54° E 21:36:01 10° NNE
ATLAS 5 CENTAUR R/B 2.5 21:29:15 10° SW 21:33:47 56° NW 21:38:42 10° NNE
Meteor 1-21 Rocket 4.3 21:28:41 10° S 21:34:14 57° E 21:39:43 10° NNE
NOSS 3-4 (A) 4.3 21:28:00 10° NW 21:35:03 63° WSW 21:42:30 10° SSE
NOSS 3-4 (C) 4.2 21:28:05 10° NW 21:35:08 64° WSW 21:42:37 10° SSE
Cosmos 1408 Rocket 4.2 21:32:03 11° SSE 21:35:46 36° E 21:39:44 10° NNE
Spot 1 4.1 21:31:56 10° S 21:35:59 78° WSW 21:40:13 10° NNW
CZ-4B DEB 2.7 21:35:09 11° S 21:38:00 75° WSW 21:40:59 10° NNW
Tiangong 1 2.9 21:38:27 10° WNW 21:40:54 26° N 21:43:19 10° ENE
Cosmos 1939 Rocket 3.6 21:37:40 10° S 21:41:33 51° W 21:45:32 10° NNW
Cosmos 1340 Rocket 4.1 21:39:25 10° SSW 21:43:13 42° WNW 21:47:05 10° N
Milstar 3 Cent rocket 4.0 21:38:04 10° WSW 21:44:26 39° S 21:53:47 16° SE
Meteor 1-29 3.8 21:43:42 10° N 21:47:03 52° WNW 21:50:24 10° SSW
Cosmos 2221 2.7 21:43:40 10° N 21:48:04 78° W 21:52:20 11° S
Cosmos 1802 Rocket 4.1 21:45:41 10° N 21:51:46 61° E 21:56:40 16° SSE
Cosmos 2237 Rocket 4.1 21:47:44 10° NW 21:52:13 25° WSW 21:56:42 10° SSW
Cosmos 1674 2.8 21:48:55 10° SSW 21:52:41 75° W 21:56:26 10° N
Envisat 4.5 21:50:35 10° SSW 21:55:10 34° W 21:59:48 10° NNW
SAR-Lupe-4 4.4 21:52:20 11° S 21:55:42 47° W 21:59:11 10° NNW
GPS 2-05 Rocket1 3.4 21:54:02 10° SW 21:56:45 28° SSE 21:56:51 28° SSE
Cosmos 1603 4.1 21:55:26 10° NNW 22:00:56 50° ENE 22:04:18 22° SE
Cosmos 371 Rocket 4.3 21:57:52 10° N 22:02:12 32° ENE 22:04:29 21° ESE
Cosmos 1908 3.5 22:00:02 10° NNW 22:03:52 65° W 22:06:45 17° S
Cosmos 2208 Rocket 4.3 22:01:12 10° NNW 22:06:31 68° WSW 22:10:38 17° S
MetOp-A 4.1 22:03:05 19° SSE 22:07:03 84° ENE 22:12:26 10° NNW
Cosmos 1486 Rocket 4.5 22:04:43 21° SSE 22:07:46 40° ESE 22:12:42 10° NNE
SPOT 5 3.1 22:05:31 24° SE 22:08:18 58° ENE 22:13:18 10° N
Abrixas rocket 4.3 22:06:35 10° NNW 22:09:10 22° NNE 22:11:18 12° ENE
ARGOS 3.2 22:05:45 22° SSE 22:09:18 68° ENE 22:14:41 10° N
KORONAS-FOTON 4.0 22:06:47 12° SSW 22:10:20 69° W 22:14:07 10° N
Lacrosse 5 2.4 22:05:54 10° NNW 22:10:51 51° NE 22:13:41 24° ESE
Cosmos 1242 Rocket 3.3 22:09:34 10° NNW 22:13:10 51° W 22:15:35 19° SSW
Cosmos 1766 Rocket 3.7 22:09:04 11° SSW 22:13:12 74° W 22:17:32 10° N
Cosmos 1763 Rocket 4.3 22:08:42 10° N 22:13:21 34° ENE 22:15:31 24° ESE
Cosmos 1943 4.2 22:10:45 10° N 22:15:51 33° ENE 22:18:35 22° ESE
SL-16 R/B 3.3 22:12:18 10° NW 22:17:31 38° WSW 22:22:10 13° S
Cosmos 2016 Rocket 3.9 22:11:43 10° N 22:17:59 84° E 22:22:13 22° S
SPOT 1/Viking Rocket 3.8 22:15:47 27° SE 22:18:20 54° ENE 22:23:21 10° N
Cosmos 1328 Rocket 3.7 22:16:19 10° N 22:20:34 53° E 22:22:01 35° SE
USA 245 3.0 22:22:12 43° SSE 22:23:15 87° ENE 22:27:21 10° NNW
YAOGAN 11 4.1 22:23:30 30° SSE 22:25:42 88° W 22:30:16 10° NNW
Atlas Centaur 2 3.2 22:24:34 10° SW 22:25:43 13° SSW 22:25:43 13° SSW
OAO 1 Rocket 4.4 22:21:11 10° W 22:26:32 70° S 22:29:33 26° ESE
Cosmos 1151 Rocket 3.9 22:22:35 10° NNE 22:26:35 33° ENE 22:27:26 30° ESE
Cosmos 1515 Rocket 4.0 22:22:29 10° N 22:26:39 44° E 22:27:42 36° ESE
Landsat 7 4.4 22:26:21 31° ESE 22:27:59 43° ENE 22:32:28 10° N
H-2A R/B 3.6 22:28:08 20° E 22:28:58 21° ENE 22:32:13 10° NNE
Cosmos 1743 Rocket 3.4 22:27:29 34° S 22:29:16 71° E 22:33:35 10° NNE
Delta 2 Rocket 4.1 22:25:51 10° WSW 22:31:28 57° SSE 22:35:16 21° E
Cosmos 1703 4.3 22:33:10 29° E 22:33:10 29° E 22:36:28 10° NNE
Cosmos 2228 Rocket 3.1 22:30:59 10° N 22:35:35 74° E 22:37:05 42° SSE
SL-08 RB Rocket 3.8 22:38:09 34° S 22:40:04 72° WSW 22:44:41 10° NNW
Cosmos 2233 Rocket 4.2 22:36:12 10° N 22:42:17 55° E 22:44:36 36° SE
Terra 2.4 22:41:47 36° ESE 22:42:54 42° ENE 22:47:24 10° N
Cosmos 468 Rocket 4.2 22:39:08 10° NNW 22:44:12 62° WSW 22:46:23 33° S
ERS-1 Rocket 4.4 22:41:46 13° SSW 22:45:29 31° W 22:49:56 10° NW
USA 234 3.5 22:44:07 10° NE 22:50:39 72° NW 22:57:07 10° SW
Meteor 1-11 4.2 22:48:16 33° S 22:51:04 80° E 22:56:54 10° N
Cosmos 332 Rocket 4.1 22:47:59 10° NNW 22:52:50 61° WSW 22:54:27 39° SSW
Cosmos 1626 2.4 22:53:53 52° ENE 22:53:53 52° ENE 22:57:10 10° NNE
Cosmos 1503 Rocket 4.1 22:52:52 47° SE 22:53:50 54° ESE 22:58:52 10° NNE
Cosmos 2058 2.8 22:57:17 68° SSE 22:57:45 80° E 23:01:58 10° N
Cosmos 1726 3.6 22:57:06 10° NNW 23:00:20 29° W 23:01:19 25° WSW
Cosmos 1447 Rocket 4.4 22:58:41 34° S 23:01:38 85° E 23:08:01 10° N
H-2A R/B 2.5 23:00:21 35° SSW 23:02:27 60° W 23:07:49 10° NNW
Cosmos 304 Rocket 4.4 22:58:46 10° N 23:03:17 40° ENE 23:03:52 38° E
Cosmos 1300 3.8 23:01:21 10° NNW 23:04:53 36° W 23:05:40 32° WSW
RESURS DK-1 3.5 23:04:24 10° NW 23:08:09 33° WSW 23:08:44 31° SW
Meteor 1-27 4.2 23:02:53 10° N 23:08:44 90° W 23:10:25 49° S
CZ-4B R/B 3.9 23:06:10 10° NNE 23:11:14 46° E 23:11:22 46° ESE
Cosmos 540 Rocket 4.0 23:07:36 10° N 23:12:31 44° ENE 23:13:14 41° E
Sich 1 4.5 23:13:51 25° ENE 23:13:51 25° ENE 23:16:27 10° NNE
Cosmos 2263 Rocket 2.3 23:10:09 24° SW 23:13:33 70° WNW 23:19:08 10° NNE
Spot 4 4.4 23:13:21 43° E 23:13:49 45° ENE 23:18:27 10° N
ERBS 3.2 23:10:32 10° NW 23:13:03 46° NW 23:13:03 46° NW
Tiangong 1 3.3 23:14:15 10° WNW 23:15:40 23° NW 23:15:40 23° NW
deb Chang Zheng 4 3.4 23:19:46 10° NNE 23:24:09 89° ESE 23:24:11 88° SE
Cosmos 2151 4.0 23:24:07 34° WSW 23:25:11 40° W 23:29:16 10° N
Cosmos 1707 Rocket 4.3 23:24:21 10° N 23:28:12 42° ENE 23:28:12 42° ENE
Cosmos 2285 Rocket 4.0 23:23:36 10° NNW 23:29:58 77° ENE 23:31:24 56° SE
Cosmos 2034 Rocket 4.4 23:29:16 10° N 23:35:21 46° ENE 23:36:19 43° ESE
Cosmos 1455 2.9 23:34:29 10° N 23:37:32 53° NNW 23:37:32 53° NNW
Cosmos 1666 Rocket 4.0 23:42:43 54° NE 23:42:43 54° NE 23:46:23 10° NNE
Cosmos 1844 Rocket 3.3 23:47:58 42° E 23:47:58 42° E 23:52:26 10° NE
Cosmos 1869 4.3 23:46:17 10° N 23:49:06 43° NNE 23:49:06 43° NNE
Cosmos 1805 Rocket 4.0 23:53:27 56° WNW 23:53:27 56° WNW 23:57:23 10° N
Lacrosse 5 3.5 23:49:32 10° WNW 23:52:53 23° WSW 23:52:53 23° WSW
